World > North America > United States > Texas

Highlands, Texas Regional Weather

Lat: 29.81N, Lon: 95.06W
Wx Zone: TXZ213Web Search

If you are on your PC, you can easily pass this page to your phone by scanning the QR Code near the bottom with your camera.

Feedback


°F Click to change Highlands hourly weather to Imperial units.Click to change Highlands hourly weather to Metric units. °C
Highlands Weather Map
UTC Time: 5/7/2021, 21:27
Your Time:

Highlands, TX Regional Weather

Expires:202105072200;;753245
ASUS44 KSJT 072102
RWRSJT
WEST CENTRAL TEXAS REGIONAL WEATHER ROUNDUP
NATIONAL WEATHER SERVICE SAN ANGELO TX
400 PM CDT FRI MAY 07 2021

NOTE: "FAIR" INDICATES FEW OR NO CLOUDS BELOW 12,000 FEET WITH NO
SIGNIFICANT WEATHER AND/OR OBSTRUCTIONS TO VISIBILITY.


TXZ163-177-195>197-199-213-226-237-072200-
SOUTHEAST TEXAS
  
CITY           SKY/WX    TMP DP  RH WIND       PRES   REMARKS
COLLEGE STN    CLOUDY    84  57  39 S13       30.10F                  
CALDWELL       MOCLDY    83  57  40 S12       30.10F                  
CROCKETT       CLEAR     84  57  39 S9G15     30.09F                  
BRENHAM        PTSUNNY   85  58  38 S7        30.11F                  
HUNTSVILLE     MOSUNNY   87  58  37 SW8       30.11F                  
CONROE         MOSUNNY   85  51  31 SE10      30.11F                  
HOUSTON BUSH   PTSUNNY   86  48  26 S10       30.10F                  
HOUSTON HOBBY  PTSUNNY   85  50  29 E12       30.11F                  
PERLAND        MOSUNNY   85  49  28 E9        30.13F                  
WHARTON        CLEAR     83  49  30 SE14      30.11F                  
$$


SKY/WX - Weather  TMP - Temperature  DP - Dew Point  RH - Relative Humidity
WIND - Wind Direction/Speed PRES - Barometric Pressure VSB - Visibility
WCI - Wind Chill Index E13G22 Wind - East Wind 13 mph/Gusts of 22 mph